Regional Weather Roundup
Issued by NWS Newport/Morehead, NC

Current Version | Previous Version | Graphics & Text | Print | Product List | Glossary Off
Versions: 1 2 3 4 5 6 7 8 9 10 11 12 13 14 15 16 17 18 19 20 21 22 23 24 25 26 27 28 29 30 31 32 33 34 35 36 37 38 39 40 41 42 43 44 45 46 47 48 49 50

000
ASUS42 KMHX 212222
RWRMHX
WEATHER ROUNDUP FOR EASTERN NORTH CAROLINA
NATIONAL WEATHER SERVICE NEWPORT/MOREHEAD CITY NC
500 PM EST SUN DEC 21 2014

NOTE: "FAIR" INDICATES FEW OR NO CLOUDS BELOW 12,000 FEET
WITH NO SIGNIFICANT WEATHER AND/OR OBSTRUCTIONS TO VISIBILITY

NCZ015>017-031-032-045>047-102-103-212300-
NORTH COAST

CITY           SKY/WX    TMP DP  RH WIND       PRES   REMARKS
EDENTON        CLEAR     42  35  75 E3        30.28R
ELIZABETH CITY CLEAR     44  33  65 NE10      30.29R
KITTY HAWK     CLEAR     44  37  76 NE5       30.26R
MANTEO         CLEAR     43  37  77 NE8       30.27S

$$

NCZ045>047-081-094-103-104-212300-
CENTRAL COAST

CITY           SKY/WX    TMP DP  RH WIND       PRES   REMARKS
FRISCO         CLOUDY    46  42  86 NE9G20    30.24S
SWANQUARTER      N/A     45 N/A N/A N3G9      30.21S

$$

NCZ095-097-098-100-101-212300-
SOUTHERN COAST

CITY           SKY/WX    TMP DP  RH WIND       PRES   REMARKS
BEAUFORT       CLOUDY    47  40  76 NE9G18    30.22S
CEDAR ISLAND     N/A     46 N/A N/A NE16G23   30.27S
JACKSONVILLE   CLOUDY    48  36  63 NE12      30.23R
PINEY ISLAND   CLOUDY    49  40  71 NE10G22   30.23S
WILMINGTON     CLOUDY    49  38  65 N5        30.20S


$$

NCZ011>013-027>030-043-044-078>080-089-090>093-098-212300-
COASTAL PLAIN

CITY           SKY/WX    TMP DP  RH WIND       PRES   REMARKS
AHOSKIE        CLEAR     42  32  68 N3        30.27S
CLINTON        CLOUDY    47  38  71 NE6       30.22S
ELIZABETHTOWN  CLOUDY    49  38  67 N3        30.22R
GOLDSBORO      CLOUDY    46  41  81 NE2       30.22F
GREENVILLE     CLOUDY    46  34  61 E5        30.25F
HAVELOCK       CLOUDY    47  39  74 NE12      30.24R
KENANSVILLE    CLOUDY    46  35  67 CALM      30.23F
KINSTON        CLOUDY    46  34  61 NE5       30.25R
NEW BERN       PTCLDY    46  35  65 N6        30.25R
RICHLANDS      CLOUDY    46  34  61 NE9       30.23F
ROCKY MOUNT    CLOUDY    47  32  56 NE3       30.26R
WASHINGTON     CLOUDY    45  34  67 NE6       30.27R
WHITEVILLE     CLOUDY    50  38  63 N3        30.20R

$$

AMZ130-135-150-152-154-156-158-170-250-252-270-ANZ085-086-088-633-658-670-212300-
MARINE OBSERVATIONS

STATION/POSITION TIME  TEMP    WIND        PRES    WAVE   SWELL
                       AIR SEA DIR/SP/G            HT/PER HT/PER
                 (UTC) (F)     (DEG/KT/KT) (MB)    (FT/S) (FT/S)
CHESAPEAKE LIGHT 2200   41      50/  9/ 10 1026.7
64 E VA BEACH    2200   46 54   40/ 12/ 14 1024.5    2/ 4   2/10
DUCK             2200   44 46   30/ 13/ 14 1024.4
2 E DUCK         2200      46                N/A     2/ 3
10 NE DUCK       2200      51                N/A     3/ 4
OREGON INLET     2200   45 48   20/ 11/ 13 1024.6
13E OREGON INLT  2200      53                N/A     3/ 4
HATTERAS CG      2200   47 50   40/  9/ 14 1023.8
DIAMOND BUOY     2200   54                 1023.1    3/ 5
17 S OCRACOKE    NOT AVBL
CAPE LOOKOUT     2200   49      30/ 18/ 21 1022.9
BEAUFORT LAB     2200   47 50   30/  7/ 12 1022.3
30 SE NEW RIVER  2200   51 60   40/ 21/ 25 1021.9    5/ 6   2/10
5 SE WRIGHTSVLE  NOT AVBL
225 S CAPE HAT   2143   69 71   40/ 12/ 16 1018.8    6/ 7   5/ 7
41 SE CHARLESTON 2200   63 69   40/ 17/ 21 1019.0    7/ 7

$$



USA.gov is the U.S. government's official web portal to all federal, state and local government web resources and services.